カタログに戻る

CZ-6A DEB

運用中PO
NORAD 61110·DEBRIS·🇨🇳 China

打ち上げ Aug 6, 2024 から Taiyuan Satellite Launch Center

Loading…

次のパス (今後24時間)

TLE

最新Source: Space-Track

元期: Sep 14, 2026, 01:01 UTC

1 61110U 24140PC  26257.04280231  .00001001  00000-0  54265-3 0  9999
2 61110  89.0350 270.0065 0117698 334.4400  25.0992 14.08306630104122

AllMySatでCZ-6A DEBをリアルタイム追跡

Download on the App Store